TimeMST,TemperatureF,Dew PointF,Humidity,Sea Level PressureIn,VisibilityMPH,Wind Direction,Wind SpeedMPH,Gust SpeedMPH,PrecipitationIn,Events,Conditions,WindDirDegrees,DateUTC
12:53 AM,36.0,21.0,55,29.99,10.0,WNW,12.7,-,N/A,,Partly Cloudy,290,2012-11-22 07:53:00
1:53 AM,35.1,17.1,48,30.02,10.0,West,15.0,-,N/A,,Clear,270,2012-11-22 08:53:00
2:53 AM,37.9,15.1,39,30.01,10.0,West,21.9,-,N/A,,Clear,270,2012-11-22 09:53:00
3:53 AM,37.9,15.1,39,30.04,10.0,West,20.7,-,N/A,,Clear,270,2012-11-22 10:53:00
4:53 AM,37.9,15.1,39,30.07,10.0,West,24.2,31.1,N/A,,Clear,270,2012-11-22 11:53:00
5:53 AM,36.0,17.1,46,30.10,10.0,West,23.0,29.9,N/A,,Partly Cloudy,270,2012-11-22 12:53:00
6:53 AM,36.0,19.9,52,30.14,10.0,West,28.8,-,N/A,,Scattered Clouds,280,2012-11-22 13:53:00
7:53 AM,36.0,19.0,50,30.17,10.0,West,26.5,33.4,N/A,,Scattered Clouds,270,2012-11-22 14:53:00
8:53 AM,37.0,16.0,42,30.22,10.0,West,27.6,34.5,N/A,,Scattered Clouds,280,2012-11-22 15:53:00
9:53 AM,41.0,16.0,36,30.26,10.0,WNW,28.8,36.8,N/A,,Partly Cloudy,290,2012-11-22 16:53:00
10:53 AM,42.1,14.0,32,30.29,10.0,NW,27.6,42.6,N/A,,Partly Cloudy,310,2012-11-22 17:53:00
11:53 AM,43.0,12.9,30,30.29,10.0,WNW,26.5,36.8,N/A,,Scattered Clouds,290,2012-11-22 18:53:00
12:53 PM,42.1,12.0,29,30.33,10.0,WNW,18.4,27.6,N/A,,Scattered Clouds,300,2012-11-22 19:53:00
1:53 PM,42.1,12.9,31,30.36,10.0,WNW,21.9,27.6,N/A,,Scattered Clouds,300,2012-11-22 20:53:00
3:53 PM,41.0,14.0,33,30.42,10.0,NW,19.6,23.0,N/A,,Partly Cloudy,310,2012-11-22 22:53:00
4:53 PM,30.9,18.0,59,30.48,10.0,ENE,5.8,-,N/A,,Partly Cloudy,60,2012-11-22 23:53:00
5:53 PM,27.0,16.0,63,30.52,10.0,NNE,9.2,-,N/A,,Clear,30,2012-11-23 00:53:00
6:53 PM,24.1,15.1,69,30.55,10.0,NNE,6.9,-,N/A,,Clear,30,2012-11-23 01:53:00
7:53 PM,19.9,14.0,78,30.58,10.0,Calm,Calm,-,N/A,,Clear,0,2012-11-23 02:53:00
8:53 PM,19.0,12.9,77,30.58,10.0,NNW,4.6,-,N/A,,Clear,340,2012-11-23 03:53:00
9:53 PM,18.0,12.9,81,30.56,10.0,NW,3.5,-,N/A,,Clear,320,2012-11-23 04:53:00
10:53 PM,17.1,12.9,84,30.56,10.0,Calm,Calm,-,N/A,,Clear,0,2012-11-23 05:53:00
11:53 PM,19.9,14.0,78,30.55,10.0,Calm,Calm,-,N/A,,Clear,0,2012-11-23 06:53:00